Voltar ao catálogo

IRIDE-MS1-EAG2-4

AtivoCiênciaSSO
NORAD 66698·PAYLOAD·🇮🇹 Italy

Lançado Nov 28, 2025 de Vandenberg Space Force Base

Loading…

Próximas Passagens (próximas 24 horas)

TLE

AtualizadoSource: Space-Track

Época: Sep 13, 2026, 22:47 UTC

1 66698U 25276AJ  26256.94994365  .00005363  00000-0  24798-3 0  9997
2 66698  97.4113 328.9292 0005267  66.5254 293.6534 15.20568004 43904

Acompanhe IRIDE-MS1-EAG2-4 em tempo real com AllMySat

Download on the App Store